レオナード彗星

C/2017 W2 ( Leonard )

English version
Home page
Updated on September 23, 2018

---------------------------------------------------------------------

・ プロフィール

発見日 2017年11月26日
発見光度 20.2等
発見者 G. J. Leonard (Mount Lemmon)

・ 写真集

・ 軌道要素

Epoch 2017 Oct. 14.0 TT = JDT 2458040.5
T 2017 Nov. 1.90181 TT                                  MPCW
q   3.9573409            (2000.0)            P               Q
n   0.01942001     Peri.  169.15179     -0.68705753     -0.02540201
a  13.7078618      Node   312.80928     +0.57025826     +0.60048390
e   0.7113087      Incl.   98.17838     +0.45028598     -0.79923327
P  50.75
From 158 observations 2017 Nov. 26-2018 May 12, mean residual 0".4.

・ 光度変化

        m1 = 10.5 + 5 logΔ + 10.0 log r

---------------------------------------------------------------------

軌道要素はM.P.E.C. 2018-S50に掲載されたものです。
光度グラフはComet for Windowsで作成したものです。

---------------------------------------------------------------------

Copyright(C) Seiichi Yoshida (comet@aerith.net). All rights reserved.